Regional Weather Roundup
Issued by NWS

Home | Current Version | Previous Version | Text Only | Print | Product List | Glossary Off
Versions: 1 2 3 4 5 6 7 8 9 10 11 12 13 14 15 16 17 18 19 20 21 22 23 24 25 26 27 28 29 30 31 32 33 34 35 36 37 38 39 40 41 42 43 44 45 46 47 48 49 50

000
ASUS43 KIND 270709
RWRIN

WEATHER ROUNDUP FOR INDIANA
NATIONAL WEATHER SERVICE INDIANAPOLIS IN
300 AM EDT THU JUL 27 2017

NOTE: "FAIR" INDICATES FEW OR NO CLOUDS BELOW 12,000 FEET WITH NO
SIGNIFICANT WEATHER AND/OR OBSTRUCTIONS TO VISIBILITY.

* - STATION DOES NOT REPORT WEATHER SUCH AS PRECIPITATION OR FOG.

+ - STATION NOT QUALITY CONTROLLED BY THE NATIONAL WEATHER SERVICE.
    USE DATA WITH CAUTION...ESPECIALLY DEWPOINT AND RELATIVE
    HUMIDITY OBSERVATIONS.

INZ001>003-010>013-019-020-270800-
NORTHWEST INDIANA

CITY           SKY/WX    TMP DP  RH WIND       PRES   REMARKS
GARY /AIRPORT/ LGT RAIN  74  73  96 S3        29.92F
KNOX *+        CLOUDY    72  70  94 S3        29.94F
LA PORTE +     DRIZZLE   72  69  92 S3        29.95F
MICHIGAN CITY+ CLOUDY    73  68  83 CALM      29.94F
MONTICELLO +   RAIN      71  70  96 NW6       29.96F
RENSSELAER +   CLOUDY    72  68  88 NW3       29.94F
VALPARAISO     LGT RAIN  73  71  93 N5        29.94F

$$

LMZ046-743>745-270800-
SOUTHERN LAKE MICHIGAN

STATION/POSITION TIME  TEMP    WIND        PRES    WAVE
                       AIR SEA DIR/SP/G            HT
                 (UTC) (F)     (DEG/KT/KT) (MB)    (FT)
BURNS HARBOR     0640   75     190/  8/ 12 1014.2F
MICHIGAN CITY    0640   76     150/  8/  8   N/A
5NW MICH CITY    0700   75 74  290/  2/  4   N/A     1

$$

INZ004-005-014>016-021>024-270800-
NORTH CENTRAL INDIANA

CITY           SKY/WX    TMP DP  RH WIND       PRES   REMARKS
GOSHEN         CLOUDY    71  65  81 SE3       29.96F
LOGANSPORT +   LGT RAIN  72  70  94 W8        29.98R
PERU/GRISSOM   TSTM      73  72  94 S6        29.94F
ROCHESTER +    CLOUDY    73  70  88 E5        29.94F
SOUTH BEND     CLOUDY    74  67  78 SE3       29.96F
WARSAW +       MOCLDY    70  68  94 CALM      29.96F

$$

INZ006>009-017-018-025>027-270800-
NORTHEAST INDIANA

CITY           SKY/WX    TMP DP  RH WIND       PRES   REMARKS
AUBURN +       CLOUDY    70  64  83 CALM      29.98S
FORT WAYNE     CLOUDY    71  66  84 S5        29.97F
HUNTINGTON +   CLOUDY    71  67  87 SE3       29.96F
KENDALLVILLE + MOCLDY    70  67  90 CALM      29.98S

$$

INZ028-029-035-036-043>045-051>053-270800-
WEST CENTRAL INDIANA

CITY           SKY/WX    TMP DP  RH WIND       PRES   REMARKS
GREENCASTLE +  CLOUDY    73  72  94 CALM      29.96F
LAFAYETTE      CLOUDY    73  70  90 VRB3      29.94F
TERRE HAUTE    LGT RAIN  75  73  93 S3        29.96F

$$

INZ030>032-037>040-046>048-054>057-064-065-270800-
CENTRAL INDIANA

CITY           SKY/WX    TMP DP  RH WIND       PRES   REMARKS
CP ATTERBURY + MOCLDY    72  70  94 SW3       29.96F
FRANKFORT +    RAIN      77  73  89 W14G22    30.01R
GREENWOOD *+   MOCLDY   N/A N/A N/A S5        29.97F
INDIANAPOLIS   CLOUDY    76  72  87 S7        29.95
-EAGLE CREEK   CLOUDY    78  71  79 S5        29.95F
KOKOMO +       RAIN      73  71  93 S9        29.96F FOG
MARION +       CLOUDY    72  68  88 SE6       29.96F
MT COMFORT *+  CLOUDY    73  70  88 S5        29.98F
SHELBYVILLE    MOCLDY    76  70  82 S6        29.96F
ZIONSVILLE +   CLOUDY    74  71  91 S5        29.96F

$$

INZ033-034-041-042-049-050-058-059-270800-
EAST CENTRAL INDIANA

CITY           SKY/WX    TMP DP  RH WIND       PRES   REMARKS
MUNCIE         CLOUDY    76  67  73 S6        29.97F
RICHMOND +     CLOUDY    68  66  94 SE6       29.99F

$$

INZ060-061-067>069-081>083-085>088-270800-
SOUTHWEST INDIANA

CITY           SKY/WX    TMP DP  RH WIND       PRES   REMARKS
EVANSVILLE     CLOUDY    77  72  84 SW5       29.97F
HUNTINGBURG *+ CLOUDY    74  73  97 S3        29.97F

$$

INZ062-063-066-070>080-084-089>092-270800-
SOUTH CENTRAL AND SOUTHEAST INDIANA

CITY           SKY/WX    TMP DP  RH WIND       PRES   REMARKS
BEDFORD +      CLOUDY    73  68  83 CALM      29.96F
BLOOMINGTON    HAZE      75  69  81 SW6       29.96F VSB 1
MADISON *+     CLOUDY    73  72  94 CALM      30.00F
NORTH VERNON + MOCLDY    73  70  88 CALM      29.98F
SEYMOUR +      CLOUDY    73  72  94 S3        29.97F

$$





USA.gov is the U.S. government's official web portal to all federal, state and local government web resources and services.